www.pogodaiklimat.ru

Погода и климат >> Архив погоды >> Бахрейн >> Bahrain


АРХИВ ПОГОДЫ в Bahrain

Время (UTC), дата Ветер
(напр.,м/с)
 
Видим.   Явления Облачность Т
(С)
Тd
(С)
f
(%)
Тe
(С)
Тes
(С)
Комфортность P
(гПа)
Po
(гПа)
Тmin
(С)
Tmax
(С)
R
(мм)
R24
(мм)
S
(см)
00 12.11 СЗ 3 16 км ясно +24.1 +21.3 84 +30 +30 очень
душно
1015.6 1016.0
03 12.11 нст 1 16 км 3/0
[Ac trans]
+24.1 +21.7 86 +31 +31 очень
душно
1016.7 1017.0
06 12.11 СЗ 6 12 км 3/3 600 м
[Cu hum Ac trans]
+25.8 +23.1 85 +34 +36 очень
душно
1018.1 1018.0 +23.3
09 12.11 СЗ 6 6000 м мгла 6/4 450 м
[Sc diur, vesp Ac trans]
+26.5 +22.0 76 +34 +37 очень
душно
1017.2 1017.0
12 12.11 С 5 9000 м мгла 8/1 750 м
[Sc Ac cast]
+26.5 +22.0 76 +34 +35 очень
душно
1015.9 1016.0
15 12.11 СЗ 4 12 км в посл. час дождь 10/4 900 м
[Sc Ac As]
+26.1 +20.8 73 +33 +33 очень
душно
1016.9 1017.0
18 12.11 СЗ 4 12 км {дождь} 8/0
[Ac trans]
+25.8 +19.3 67 +31 +31 очень
душно
1016.9 1017.0 +27.1
21 12.11 С 4 14 км 3/3 750 м
[Sc]
+25.0 +19.5 72 +30 +30 душно 1015.9 1016.0
00 13.11 СЗ 5 14 км 6/1 750 м
[Sc Ac trans]
+25.0 +18.6 68 +30 +30 душно 1015.9 1016.0 0.1
03 13.11 С 6 14 км 8/3 750 м
[Sc Ac trans]
+24.9 +17.5 63 +29 +29 душно 1016.5 1017.0
06 13.11 СЗ 5 16 км слабый ливневой дождь 10/1 750 м
[Sc Ac As]
+25.5 +18.1 64 +30 +31 душно 1017.7 1018.0 +24.6
09 13.11 С 5 16 км слабый дождь {ливн. осадки} 10/3 1050 м
[Sc diur, vesp Ac As]
+26.0 +18.0 61 +30 +32 душно 1015.5 1016.0
12 13.11 С 6 16 км 6/6 900 м
[Sc diur, vesp Ac trans]
+26.1 +17.3 58 +30 +31 душно 1014.7 1015.0 0.0
15 13.11 С 5 16 км ясно +25.1 +16.7 60 +29 +29 душно 1015.0 1015.0
18 13.11 С 4 16 км ясно +24.8 +17.2 63 +29 +29 душно 1014.9 1015.0 +26.9
21 13.11 СЗ 2 16 км 3/0
[Ac trans]
+24.4 +15.5 58 +27 +27 жарко 1014.4 1014.0
00 14.11 СЗ 2 16 км 5/0
[Ac trans]
+24.2 +15.6 59 +27 +27 жарко 1013.3 1013.0
03 14.11 С 6 16 км 5/0
[Ac trans Ci fib]
+24.7 +15.2 55 +28 +28 душно 1014.1 1014.0
06 14.11 С 7 16 км 5/3 900 м
[Cu hum Ac trans]
+25.9 +18.5 64 +31 +32 очень
душно
1015.3 1015.0 +22.4
09 14.11 СВ 6 16 км {дождь} 8/0
[Ac As]
+25.4 +19.6 70 +31 +32 очень
душно
1012.8 1013.0
12 14.11 В 5 14 км {дождь} 4/0
[Ac trans]
+26.2 +19.7 67 +32 +33 очень
душно
1011.4 1011.0 0.0
15 14.11 В 4 16 км 5/0
[Ac trans Ci sp]
+25.3 +19.8 72 +31 +31 очень
душно
1012.3 1012.0
18 14.11 СВ 3 16 км 8/1 600 м
[Sc Ac As]
+25.7 +19.7 69 +31 +31 очень
душно
1013.1 1013.0 +26.5
21 14.11 СВ 5 14 км 3/0
[Ci fib]
+25.1 +18.9 68 +30 +30 душно 1012.0 1012.0
00 15.11 В 5 16 км ясно +24.7 +20.5 77 +31 +31 очень
душно
1011.1 1011.0
03 15.11 В 4 16 км 8/0
[Ci sp]
+24.8 +21.6 82 +32 +32 очень
душно
1012.1 1012.0
06 15.11 В 4 16 км 5/0
[Ci sp]
+26.9 +22.4 76 +35 +39 очень
душно
1014.2 1014.0 +24.5
09 15.11 В 4 16 км 6/0
[Ci sp]
+28.0 +23.0 74 +37 +43 очень
душно
1012.6 1013.0
12 15.11 ЮВ 5 14 км 8/0
[Ci sp]
+30.7 +21.4 58 +39 +40 очень
душно
1011.0 1011.0
15 15.11 ЮВ 6 12 км 10/0
[Cs]
+28.0 +22.4 72 +37 +37 очень
душно
1012.3 1012.0
18 15.11 ЮВ 7 12 км 9/0
[Cs]
+26.6 +22.9 80 +35 +35 очень
душно
1012.4 1012.0 +32.5
21 15.11 ЮВ 5 12 км 4/0
[Ac trans Ci sp]
+26.5 +23.0 81 +35 +35 очень
душно
1012.9 1013.0
00 16.11 ЮВ 5 12 км 3/0
[Ci sp]
+26.7 +23.6 83 +36 +36 очень
душно
1012.2 1012.0
03 16.11 Ю 3 8000 м мгла 8/0
[Ac trans Ci fib]
+26.4 +23.5 84 +36 +36 очень
душно
1014.2 1014.0
06 16.11 ЮВ 6 12 км 10/0
[Ac trans Cs]
+27.8 +23.5 77 +38 +40 очень
душно
1015.8 1016.0 +26.4
09 16.11 нст 3 10 км мгла 10/0
[Cs]
+29.6 +23.2 69 +40 +47 очень
душно
1015.6 1016.0
12 16.11 С 4 12 км 9/1 750 м
[Cu hum Ac trans]
+28.4 +20.8 63 +35 +36 очень
душно
1015.5 1016.0
15 16.11 С 3 9000 м мгла 9/0
[Ac trans Cs]
+27.4 +22.9 76 +36 +36 очень
душно
1016.7 1017.0
18 16.11 С 4 7000 м мгла 9/1 900 м
[Sc Ac trans]
+27.0 +21.9 74 +35 +35 очень
душно
1017.7 1018.0 +30.4
21 16.11 СЗ 4 8000 м мгла 10/0
[Ac trans Cs]
+26.5 +22.6 79 +35 +35 очень
душно
1017.3 1017.0
00 17.11 СЗ 7 9000 м мгла 10/0
[Cs]
+26.4 +23.1 82 +35 +35 очень
душно
1017.0 1017.0
03 17.11 СЗ 7 9000 м мгла 3/0
[Ac trans Ci sp]
+25.9 +21.8 78 +33 +33 очень
душно
1017.9 1018.0
06 17.11 СЗ 8 14 км 3/1 600 м
[Sc Ac trans]
+27.3 +21.5 71 +35 +36 очень
душно
1019.8 1020.0 +25.9
09 17.11 СЗ 9 12 км 6/6 750 м
[Sc]
+27.6 +20.3 64 +34 +34 очень
душно
1018.8 1019.0
12 17.11 СЗ 9 10 км мгла 5/5 750 м
[Sc]
+27.1 +19.3 62 +33 +33 очень
душно
1017.5 1018.0
15 17.11 СЗ 7 12 км 4/4 450 м
[St]
+25.6 +19.1 67 +31 +31 очень
душно
1018.9 1019.0
18 17.11 СЗ 8 12 км 3/3 600 м
[Sc]
+24.5 +17.9 67 +29 +29 душно 1019.4 1019.0 +28.0
21 17.11 З 5 8000 м мгла 4/4 600 м
[Sc]
+23.1 +19.3 79 +29 +29 очень
душно
1018.7 1019.0
00 18.11 СЗ 9 5000 м мгла 1/1 750 м
[Sc]
+22.5 +19.1 81 +28 +28 душно 1018.0 1018.0
03 18.11 З 7 2700 м дымка 3/3 300 м
[St Ci sp]
+22.0 +19.6 86 +28 +28 душно 1018.2 1018.0
06 18.11 СЗ 11 8000 м мгла 1/1 900 м
[Cu hum]
+24.2 +19.6 76 +29 +30 душно 1019.8 1020.0 +21.9
09 18.11 СЗ 11 12 км 3/3 450 м
[St]
+25.4 +18.9 67 +30 +30 душно 1017.7 1018.0
12 18.11 СЗ 11 12 км 4/4 750 м
[Sc]
+25.5 +16.5 57 +29 +29 душно 1016.7 1017.0
15 18.11 СЗ 9 12 км 3/3 750 м
[Sc]
+24.2 +15.3 58 +27 +27 жарко 1017.1 1017.0
18 18.11 СЗ 8 14 км ясно +23.8 +14.4 56 +26 +26 жарко 1017.9 1018.0 +26.2
21 18.11 З 5 14 км ясно +22.6 +16.7 69 +27 +27 душно 1017.5 1018.0

 

Местоположение метеостанции Bahrain (Бахрейн): широта 26.27 долгота 50.65 высота над уровнем моря 2 м.

В архиве по умолчанию представлена погода в Bahrain за последнюю неделю. Архивные данные за месяц целиком и за предыдущие месяцы, начиная с января 2011 года, Вы можете получить, выбрав интересующий диапазон дат из раскрывающегося списка и нажав кнопку "Ввод!".


*Определитесь, кто Вы:
робот инопланетянин человек

Внимание! Время в таблицах - всемирное. Для получения местного времени необходимо прибавить поправку, которая в Bahrain равна 4 ч.

Смотрите также архив погоды в соседних городах и на ближайших метеорологических станциях:

Погода в Dhahran (Саудовская Аравия) (48 км)
Погода в King Fahd Int Airport (Саудовская Аравия) (85 км)
Погода в Dukhan (Катар) (97 км)
Погода в Doha (Катар) (146 км)
Погода в Hamad Int Airport (Катар) (147 км)
Погода в Al Ahsa (Саудовская Аравия) (159 км)
Погода в Abu Samra (Катар) (170 км)
Погода в Bandar Deyr (Иран) (215 км)
Погода в Bushehr (Иран) (299 км)
Погода в Bushehr Airport (Иран) (302 км)

Пояснения к столбцам:

Ветер - указаны скорость ветра в м/с - средняя за 10 мин, порывы в срок и между сроками (в фигурных скобках) и направление, откуда дует ветер: С - северный, СВ - северо-восточный, В - восточный, ЮВ - юго-восточный, Ю - южный, ЮЗ - юго-западный, З - западный, СЗ - северо-западный.
Видимость - горизонтальная дальность видимости в метрах или километрах. При видимости от 1 до 10 км при отсутствии осадков обычно наблюдается дымка, при ухудшении видимости до 1 км и менее - туман. В сухую погоду видимость может ухудшаться дымом, пылью или мглою.
Явления - указаны атмосферные явления, наблюдавшиеся в срок или в последний час перед сроком; фигурными скобками обозначены явления, наблюдавшиеся между сроками (за 1-3 часа до срока); квадратными скобками обозначены град или гололедные отложения с указанием их диаметра в мм.
Облачность - указаны через наклонную черту общая и нижняя облачность в баллах и высота нижней границы облаков в метрах; квадратными скобками обозначены формы облаков: Ci - перистые, Cs - перисто-слоистые, Cc - перисто-кучевые, Ac - высококучевые, As - высокослоистые, Sc - слоисто-кучевые, Ns - слоисто-дождевые, Cu - кучевые, Cb - кучево-дождевые. Подробнее классификацию облаков см. в Атласе облаков (PDF).
T - Температура воздуха - температура, измеренная на высоте 2 м над землей.
Td - Температура точки росы - температура, при понижении до которой содержащийся в воздухе водяной пар достигнет насыщения.
f - Относительная влажность воздуха - влажноcть воздуха, измеренная на высоте 2 м над землей.
Te - Эффективная температура - температура, которую ощущает одетый по сезону человек в тени. Характеристика душности погоды. При расчете учитывается влияние влажности воздуха и скорости ветра на теплоощущения человека.
Tes - Эффективная температура на солнце - температура, которую ощущает человек, с поправкой на солнечный нагрев. Характеристика знойности погоды. Зависит от высоты солнца над горизонтом, облачности и скорости ветра. Ночью, в пасмурную погоду, а также при ветре 12 м/с и более поправка равна нулю.
P - Атмосферное давление - приведенное к уровню моря атмосферное давление.
Po - Атмосферное давление - измеренное на уровне метеостанции атмосферное давление.
Tmin - Минимальная температура - минимум температуры воздуха на высоте 2 м над землей.
Tmax - Максимальная температура - максимум температуры воздуха на высоте 2 м над землей.
R - Количество осадков - Количество выпавших осадков за период времени, мм. При наведении курсора мыши на число - период времени, за который выпало указанное количество осадков.
R24 - Количество осадков - Количество выпавших осадков за 24 часа, мм.
S - Снежный покров - Высота снежного покрова, см. При наведении курсора мыши на число - состояние снежного покрова и степень покрытия местности в баллах.